$DATE,$TIME,DM0600B,DM0602B,DM0604B,DM0614B,DM0616B,DM0618B,DM0624B,DM0628B,DM0630B,DM0634B,DM0606B,DM0608B,DM0610B
07/04/94,00:00:00,1,0,3,0,0,0,0,58,25,0,30,28,23
07/04/94,00:05:00,5,0,5,0,0,0,0,58,25,0,28,32,25
07/04/94,00:10:00,11,0,15,0,0,0,0,58,25,0,27,27,30
07/04/94,00:15:00,16,0,16,0,0,0,0,57,25,0,27,29,19
07/04/94,00:20:00,9,0,22,0,0,0,0,57,25,0,24,24,29
07/04/94,00:25:00,14,0,13,0,0,0,0,57,25,0,27,31,17
07/04/94,00:30:00,5,0,17,0,0,0,0,57,25,0,20,22,25
07/04/94,00:35:00,7,0,15,0,0,0,0,57,25,0,29,32,17
07/04/94,00:40:00,3,0,10,0,0,0,0,57,25,0,20,21,23
07/04/94,00:45:00,15,0,13,0,0,0,0,57,25,0,26,27,21
07/04/94,00:50:00,11,0,12,0,0,0,0,57,25,0,23,24,19
07/04/94,00:55:00,8,0,10,0,0,0,0,57,25,0,20,22,20
07/04/94,01:00:00,5,0,6,0,0,0,0,57,25,0,27,29,21
07/04/94,01:05:00,2,0,9,0,0,0,0,57,25,0,19,19,18
07/04/94,01:10:00,0,0,0,0,0,0,0,57,25,0,29,31,24
07/04/94,01:15:00,0,0,0,0,0,0,0,57,25,0,22,23,21
07/04/94,01:20:00,0,0,0,0,0,0,0,57,25,0,27,30,25
07/04/94,01:25:00,0,0,0,0,0,0,0,57,25,0,26,26,27
07/04/94,01:30:00,0,0,0,0,0,0,0,57,25,0,26,28,20
07/04/94,01:35:00,0,0,0,0,0,0,0,57,25,0,31,33,28
07/04/94,01:40:00,0,0,0,0,0,0,0,58,25,0,24,25,26
07/04/94,01:45:00,0,0,0,0,0,0,0,57,25,0,33,35,22
07/04/94,01:50:00,0,0,0,0,0,0,0,57,25,0,24,25,32
07/04/94,01:55:00,0,0,0,0,0,0,0,57,25,0,35,37,23
07/04/94,02:00:00,0,0,0,0,0,0,0,57,25,0,22,22,25
07/04/94,02:05:00,0,0,0,0,0,0,0,58,25,0,33,34,32
07/04/94,02:10:00,0,0,0,0,0,0,0,58,25,0,24,24,23
07/04/94,02:15:00,0,0,0,0,0,0,0,57,25,0,32,32,30
07/04/94,02:20:00,0,0,0,0,0,0,0,57,25,0,25,26,29
07/04/94,02:25:00,0,0,0,0,0,0,0,57,25,0,31,31,21
07/04/94,02:30:00,0,0,0,0,0,0,0,58,25,0,27,29,30
07/04/94,02:35:00,2,0,8,0,0,0,0,58,25,0,28,29,29
07/04/94,02:40:00,0,0,0,0,0,0,0,57,25,0,29,32,20
07/04/94,02:45:00,4,0,4,0,0,0,0,58,25,0,28,28,33
07/04/94,02:50:00,0,0,0,0,0,0,0,58,25,0,30,33,26
07/04/94,02:55:00,0,0,0,0,0,0,0,57,25,0,27,26,23
07/04/94,03:00:00,0,0,0,0,0,0,0,57,25,0,33,36,32
07/04/94,03:05:00,0,0,0,0,0,0,0,57,25,0,25,25,26
07/04/94,03:10:00,0,0,0,0,0,0,0,57,25,0,35,37,24
07/04/94,03:15:00,0,0,0,0,0,0,0,58,25,0,24,24,32
07/04/94,03:20:00,0,0,0,0,0,0,0,58,25,0,35,37,22
07/04/94,03:25:00,0,0,0,0,0,0,0,58,49,0,24,23,28
07/04/94,03:30:00,0,0,0,0,0,0,0,58,25,0,34,35,33
07/04/94,03:35:00,0,0,0,0,0,0,0,58,25,0,25,24,22
07/04/94,03:40:00,0,0,0,0,0,0,0,58,25,0,33,33,31
07/04/94,03:45:00,0,0,0,0,0,0,0,57,25,0,25,27,29
07/04/94,03:50:00,0,0,0,0,0,0,0,58,25,0,31,32,22
07/04/94,03:55:00,0,0,0,0,0,0,0,58,29,0,28,30,31
07/04/94,04:00:00,0,0,0,0,0,0,0,58,25,0,29,28,29
07/04/94,04:05:00,0,0,0,0,0,0,0,57,25,0,31,34,21
07/04/94,04:10:00,0,0,0,0,0,0,0,58,25,0,28,27,35
07/04/94,04:15:00,0,0,0,0,0,0,0,58,25,0,34,36,24
07/04/94,04:20:00,0,0,0,0,0,0,0,57,25,0,25,24,26
07/04/94,04:25:00,0,0,0,0,0,0,0,58,25,0,35,38,33
07/04/94,04:30:00,0,0,0,0,0,0,0,58,25,0,24,23,25
07/04/94,04:35:00,0,0,0,0,0,0,0,58,25,0,36,36,27
07/04/94,04:40:00,0,0,0,0,0,0,0,57,25,0,24,23,32
07/04/94,04:45:00,0,0,0,0,0,0,0,58,25,0,35,35,22
07/04/94,04:50:00,0,0,0,0,0,0,0,58,25,0,24,25,28
07/04/94,04:55:00,0,0,0,0,0,0,0,58,25,0,32,32,32
07/04/94,05:00:00,0,0,0,0,0,0,0,58,25,0,26,29,22
07/04/94,05:05:00,0,0,0,0,0,0,0,58,25,0,31,31,32
07/04/94,05:10:00,0,0,0,0,0,0,0,58,34,0,28,33,28
07/04/94,05:15:00,0,0,0,0,0,0,0,58,25,0,30,28,23
07/04/94,05:20:00,0,0,0,0,0,0,0,58,25,0,31,36,33
07/04/94,05:25:00,0,0,0,0,0,0,0,58,25,0,28,27,28
07/04/94,05:30:00,0,0,0,0,0,0,0,58,25,0,33,37,25
07/04/94,05:35:00,0,0,0,0,0,0,0,58,25,0,26,25,34
07/04/94,05:40:00,0,0,0,0,0,0,0,58,25,0,36,38,24
07/04/94,05:45:00,0,0,0,0,0,0,0,58,25,0,24,23,26
07/04/94,05:50:00,0,0,0,0,0,0,0,58,25,0,36,35,33
07/04/94,05:55:00,0,0,0,0,0,0,0,58,25,0,24,25,23
07/04/94,06:00:00,0,0,0,0,0,0,0,58,25,0,35,33,29
07/04/94,06:05:00,0,0,0,0,0,0,0,58,32,0,25,27,31
07/04/94,06:10:00,0,0,0,0,0,0,0,58,25,0,33,31,22
07/04/94,06:15:00,0,0,0,0,0,0,0,58,25,0,26,30,32
07/04/94,06:20:00,0,0,0,0,0,0,0,58,25,0,30,29,29
07/04/94,06:25:00,0,0,0,0,0,0,0,58,25,0,29,32,22
07/04/94,06:30:00,0,0,0,0,0,0,0,58,25,0,29,29,35
07/04/94,06:35:00,0,0,0,0,0,0,0,58,25,0,32,36,25
07/04/94,06:40:00,0,0,0,0,0,0,0,58,25,0,28,27,25
07/04/94,06:45:00,0,0,0,0,0,0,0,57,25,0,34,37,33
07/04/94,06:50:00,0,0,0,0,0,0,0,58,25,0,26,24,25
07/04/94,06:55:00,0,0,0,0,0,0,0,58,25,0,35,38,26
07/04/94,07:00:00,0,0,0,0,0,0,0,58,25,0,25,24,32
07/04/94,07:05:00,0,0,0,0,0,0,0,58,25,0,36,36,22
07/04/94,07:10:00,0,0,0,0,0,0,0,58,25,0,23,23,32
07/04/94,07:15:00,0,0,0,0,0,0,0,58,25,0,35,33,30
07/04/94,07:20:00,0,0,0,0,0,0,0,58,25,0,24,26,21
07/04/94,07:25:00,0,0,0,0,0,0,0,58,25,0,32,31,34
07/04/94,07:30:00,0,0,0,0,0,0,0,58,25,0,26,28,26
07/04/94,07:35:00,0,0,0,0,0,0,0,57,25,0,32,30,25
07/04/94,07:40:00,0,0,0,0,0,0,0,58,25,0,27,33,33
07/04/94,07:45:00,0,0,0,0,0,0,0,58,25,0,29,27,25
07/04/94,07:50:00,0,0,0,0,0,0,0,57,25,0,31,36,26
07/04/94,07:55:00,0,0,0,0,0,0,0,58,25,0,28,26,33
07/04/94,08:00:00,0,0,0,0,0,0,0,58,25,0,33,37,21
07/04/94,08:05:00,0,0,0,0,0,0,0,57,25,0,25,24,31
07/04/94,08:10:00,0,0,0,0,0,0,0,58,25,0,36,37,29
07/04/94,08:15:00,0,0,0,0,0,0,0,58,25,0,24,23,22
07/04/94,08:20:00,0,0,0,0,0,0,0,58,25,0,36,36,32
07/04/94,08:25:00,0,0,0,0,0,0,0,58,25,0,23,24,27
07/04/94,08:30:00,0,0,0,0,0,0,0,58,25,0,35,33,25
07/04/94,08:35:00,0,0,0,0,0,0,0,58,25,0,23,26,34
07/04/94,08:40:00,0,0,0,0,0,0,0,58,25,0,34,32,25
07/04/94,08:45:00,0,0,0,0,0,0,0,57,25,0,26,30,25
07/04/94,08:50:00,0,0,0,0,0,0,0,58,25,0,30,29,33
07/04/94,08:55:00,0,0,0,0,0,0,0,58,25,0,29,34,22
07/04/94,09:00:00,0,13,0,0,0,0,0,57,25,0,29,27,27
07/04/94,09:05:00,0,16,6,0,0,0,0,57,25,0,26,34,27
07/04/94,09:10:00,10,22,18,0,0,0,0,58,25,0,26,22,19
07/04/94,09:15:00,16,42,30,0,0,0,0,56,24,0,24,27,13
07/04/94,09:20:00,18,28,10,0,0,0,0,56,24,0,16,17,19
07/04/94,09:25:00,17,28,36,0,0,0,0,57,24,0,19,20,13
07/04/94,09:30:00,24,20,28,0,0,0,0,57,24,0,20,25,12
07/04/94,09:35:00,6,16,3,0,0,0,0,56,24,0,15,16,17
07/04/94,09:40:00,13,11,19,0,0,0,0,56,24,0,17,19,12
07/04/94,09:45:00,21,13,18,0,0,0,0,56,24,0,14,15,10
07/04/94,09:50:00,20,12,7,0,0,0,0,56,24,0,12,12,9
07/04/94,09:55:00,14,20,31,0,0,0,0,56,24,0,10,19,8
07/04/94,10:00:00,33,36,43,0,0,0,0,56,38,0,9,19,7
07/04/94,10:05:00,2,0,0,0,0,0,0,57,25,0,13,13,11
07/04/94,10:10:00,18,0,1,0,0,0,0,57,24,0,24,22,20
07/04/94,10:15:00,9,0,0,0,0,0,0,57,24,0,17,22,13
07/04/94,10:20:00,12,0,7,0,0,0,0,57,25,0,19,19,19
07/04/94,10:25:00,3,3,0,0,0,0,0,58,25,0,27,31,20
07/04/94,10:30:00,26,0,0,0,0,0,0,58,25,0,18,19,17
07/04/94,10:35:00,17,3,0,0,0,0,0,57,25,0,28,28,23
07/04/94,10:40:00,21,0,7,0,0,0,0,58,25,0,22,24,16
07/04/94,10:45:00,19,0,2,0,0,0,0,58,25,0,23,24,27
07/04/94,10:50:00,0,0,0,0,0,0,0,58,25,0,27,30,16
07/04/94,10:55:00,3,2,0,0,0,0,0,58,25,0,22,23,28
07/04/94,11:00:00,3,3,0,0,0,0,0,58,25,0,31,34,19
07/04/94,11:05:00,7,0,0,0,0,0,0,58,25,0,20,21,24
07/04/94,11:10:00,3,0,0,0,0,0,0,58,25,0,31,33,25
07/04/94,11:15:00,4,3,0,0,0,0,0,57,25,0,21,22,18
07/04/94,11:20:00,0,0,0,0,0,0,0,58,25,0,29,30,31
07/04/94,11:25:00,1,0,4,0,0,0,0,58,38,0,25,27,20
07/04/94,11:30:00,0,0,1,0,0,0,0,58,25,0,28,29,27
07/04/94,11:35:00,0,0,1,0,0,0,0,58,25,0,27,32,28
07/04/94,11:40:00,0,0,0,0,0,0,0,58,25,0,26,25,20
07/04/94,11:45:00,0,0,3,0,0,0,0,58,25,0,32,36,29
07/04/94,11:50:00,0,0,14,0,0,0,0,58,25,0,25,24,27
07/04/94,11:55:00,0,0,0,0,0,0,0,58,25,0,33,36,21
07/04/94,12:00:00,0,0,0,0,0,0,0,58,25,0,24,23,32
07/04/94,12:05:00,1,0,5,0,0,0,0,57,25,0,35,35,22
07/04/94,12:10:00,0,0,3,0,0,0,0,58,25,0,22,23,25
07/04/94,12:15:00,0,0,0,0,0,0,0,58,25,0,34,33,32
07/04/94,12:20:00,0,0,0,0,0,0,0,57,25,0,23,26,21
07/04/94,12:25:00,0,0,0,0,0,0,0,58,25,0,32,30,30
07/04/94,12:30:00,0,0,0,0,0,0,0,58,25,0,25,29,28
07/04/94,12:35:00,0,0,0,0,0,0,0,58,25,0,31,29,22
07/04/94,12:40:00,0,0,0,0,0,0,0,57,25,0,28,36,32
07/04/94,12:45:00,0,0,0,0,0,0,0,58,25,0,28,25,26
07/04/94,12:50:00,0,0,0,0,0,0,0,57,25,0,31,37,23
07/04/94,12:55:00,0,0,0,0,0,0,0,58,25,0,27,24,33
07/04/94,13:00:00,0,0,0,0,0,0,0,58,25,0,34,37,21
07/04/94,13:05:00,0,0,0,0,0,0,0,57,25,0,24,23,29
07/04/94,13:10:00,0,0,3,0,0,0,0,58,26,0,36,35,31
07/04/94,13:15:00,0,0,0,0,0,0,0,58,25,0,23,26,21
07/04/94,13:20:00,0,0,0,0,0,0,0,58,25,0,34,32,33
07/04/94,13:25:00,0,0,0,0,0,0,0,58,25,0,24,28,25
07/04/94,13:30:00,0,0,0,0,0,0,0,58,25,0,33,30,24
07/04/94,13:35:00,0,0,0,0,0,0,0,57,25,0,26,32,33
07/04/94,13:40:00,0,0,0,0,0,0,0,58,25,0,29,27,24
07/04/94,13:45:00,0,0,0,0,0,0,0,58,25,0,30,36,25
07/04/94,13:50:00,0,0,0,0,0,0,0,57,25,0,27,25,33
07/04/94,13:55:00,0,0,0,0,0,0,0,58,53,0,34,38,21
07/04/94,14:00:00,0,0,0,0,0,0,0,58,25,0,25,23,32
07/04/94,14:05:00,0,0,0,0,0,0,0,58,25,0,36,35,30
07/04/94,14:10:00,0,0,0,0,0,0,0,58,25,0,23,24,21
07/04/94,14:15:00,0,0,0,0,0,0,0,58,25,0,34,33,33
07/04/94,14:20:00,0,0,0,0,0,0,0,58,25,0,24,29,25
07/04/94,14:25:00,0,0,0,0,0,0,0,58,25,0,32,30,26
07/04/94,14:30:00,0,0,0,0,0,0,0,58,25,0,26,33,33
07/04/94,14:35:00,0,0,0,0,0,0,0,58,25,0,29,27,23
07/04/94,14:40:00,0,0,0,0,0,0,0,57,33,0,30,36,28
07/04/94,14:45:00,0,0,0,0,0,0,0,58,25,0,28,26,31
07/04/94,14:50:00,0,0,0,0,0,0,0,58,25,0,32,38,21
07/04/94,14:55:00,0,0,0,0,0,0,0,58,25,0,26,24,33
07/04/94,15:00:00,0,0,0,0,0,0,0,58,25,0,35,37,27
07/04/94,15:05:00,0,0,0,0,0,0,0,58,25,0,24,23,22
07/04/94,15:10:00,0,0,0,0,0,0,0,58,25,0,36,35,33
07/04/94,15:15:00,0,0,0,0,0,0,0,58,25,0,23,26,25
07/04/94,15:20:00,0,0,0,0,0,0,0,58,25,0,33,32,27
07/04/94,15:25:00,0,0,0,0,0,0,0,58,36,0,25,31,32
07/04/94,15:30:00,0,0,0,0,0,0,0,58,25,0,32,29,23
07/04/94,15:35:00,0,0,0,0,0,0,0,58,25,0,28,34,28
07/04/94,15:40:00,0,0,0,0,0,0,0,58,25,0,29,28,31
07/04/94,15:45:00,0,0,0,0,0,0,0,58,25,0,31,37,21
07/04/94,15:50:00,0,0,0,0,0,0,0,58,25,0,26,26,33
07/04/94,15:55:00,0,0,0,0,0,0,0,58,25,0,34,38,27
07/04/94,16:00:00,0,0,0,0,0,0,0,57,25,0,25,24,23
07/04/94,16:05:00,0,0,0,0,0,0,0,58,25,0,35,37,33
07/04/94,16:10:00,0,0,0,0,0,0,0,58,38,0,23,24,25
07/04/94,16:15:00,0,0,0,0,0,0,0,57,25,0,35,35,28
07/04/94,16:20:00,0,0,0,0,0,0,0,58,25,0,23,25,31
07/04/94,16:25:00,0,0,0,0,0,0,0,58,25,0,34,33,22
07/04/94,16:30:00,0,0,0,0,0,0,0,58,25,0,24,27,29
07/04/94,16:35:00,0,0,0,0,0,0,0,58,25,0,31,30,30
07/04/94,16:40:00,0,0,0,0,0,0,0,58,25,0,28,32,21
07/04/94,16:45:00,0,0,0,0,0,0,0,58,25,0,30,29,34
07/04/94,16:50:00,0,0,0,0,0,0,0,58,25,0,30,36,26
07/04/94,16:55:00,0,0,0,0,0,0,0,58,26,0,28,26,24
07/04/94,17:00:00,0,0,0,0,0,0,0,58,25,0,34,38,33
07/04/94,17:05:00,0,0,0,0,0,0,0,58,25,0,25,24,26
07/04/94,17:10:00,0,0,0,0,0,0,0,58,25,0,35,38,25
07/04/94,17:15:00,0,0,0,0,0,0,0,58,25,0,24,24,32
07/04/94,17:20:00,0,0,0,0,0,0,0,57,25,0,36,36,21
07/04/94,17:25:00,0,0,0,0,0,0,0,58,25,0,23,24,30
07/04/94,17:30:00,0,0,0,0,0,0,0,58,25,0,34,33,31
07/04/94,17:35:00,0,0,0,0,0,0,0,58,25,0,24,27,21
07/04/94,17:40:00,0,0,0,0,0,0,0,58,37,0,32,31,34
07/04/94,17:45:00,0,0,0,0,0,0,0,58,25,0,26,30,26
07/04/94,17:50:00,0,0,0,0,0,0,0,58,25,0,30,30,24
07/04/94,17:55:00,0,0,0,0,0,0,0,57,25,0,29,34,33
07/04/94,18:00:00,0,0,0,0,0,0,0,58,25,0,28,27,25
07/04/94,18:05:00,0,0,0,0,0,0,0,58,25,0,32,36,26
07/04/94,18:10:00,0,0,0,0,0,0,0,58,25,0,27,25,32
07/04/94,18:15:00,0,0,0,0,0,0,0,57,25,0,33,37,21
07/04/94,18:20:00,0,0,0,0,0,0,0,58,25,0,26,25,34
07/04/94,18:25:00,0,0,0,0,0,0,0,57,25,0,36,38,27
07/04/94,18:30:00,0,0,0,0,0,0,0,58,25,0,23,23,22
07/04/94,18:35:00,0,0,0,0,0,0,0,58,25,0,35,35,34
07/04/94,18:40:00,0,0,0,0,0,0,0,57,25,0,24,25,25
07/04/94,18:45:00,0,0,0,0,0,0,0,58,25,0,34,33,26
07/04/94,18:50:00,0,0,0,0,0,0,0,58,25,0,24,31,32
07/04/94,18:55:00,0,0,0,0,0,0,0,58,25,0,32,29,24
07/04/94,19:00:00,0,0,0,0,0,0,0,58,25,0,27,35,27
07/04/94,19:05:00,0,0,0,0,0,0,0,58,25,0,30,27,32
07/04/94,19:10:00,0,0,0,0,0,0,0,58,25,0,30,38,21
07/04/94,19:15:00,0,0,0,0,0,0,0,58,25,0,29,25,33
07/04/94,19:20:00,0,0,0,0,0,0,0,57,25,0,32,38,28
07/04/94,19:25:00,0,0,0,0,0,0,0,58,25,0,25,24,22
07/04/94,19:30:00,0,0,0,0,0,0,0,58,33,0,36,36,33
07/04/94,19:35:00,0,0,0,0,0,0,0,58,25,0,24,25,25
07/04/94,19:40:00,0,0,0,0,0,0,0,58,25,0,36,34,25
07/04/94,19:45:00,0,0,0,0,0,0,0,58,25,0,23,26,33
07/04/94,19:50:00,0,0,0,0,0,0,0,58,25,0,34,31,23
07/04/94,19:55:00,0,0,0,0,0,0,0,58,25,0,25,31,28
07/04/94,20:00:00,0,0,0,0,0,0,0,58,25,0,33,30,32
07/04/94,20:05:00,0,0,0,0,0,0,0,58,25,0,27,35,21
07/04/94,20:10:00,0,0,0,0,0,0,0,58,25,0,30,27,34
07/04/94,20:15:00,0,0,0,0,0,0,0,58,25,0,29,38,27
07/04/94,20:20:00,0,0,0,0,0,0,0,58,25,0,28,24,23
07/04/94,20:25:00,0,0,0,0,0,0,0,58,25,0,33,38,33
07/04/94,20:30:00,0,0,0,0,0,0,0,58,25,0,25,24,25
07/04/94,20:35:00,0,0,0,0,0,0,0,58,25,0,35,36,26
07/04/94,20:40:00,0,0,0,0,0,0,0,58,39,0,24,25,32
07/04/94,20:45:00,0,0,0,0,0,0,0,58,25,0,36,33,23
07/04/94,20:50:00,0,0,0,0,0,0,0,58,25,0,23,28,30
07/04/94,20:55:00,0,0,0,0,0,0,0,58,25,0,33,31,31
07/04/94,21:00:00,0,0,0,0,0,0,0,58,25,0,25,31,21
07/04/94,21:05:00,0,0,0,0,0,0,0,58,25,0,32,31,33
07/04/94,21:10:00,0,0,0,0,0,0,0,58,25,0,26,34,26
07/04/94,21:15:00,0,0,0,0,0,0,0,58,25,0,31,29,25
07/04/94,21:20:00,0,0,0,0,0,0,0,58,25,0,28,36,32
07/04/94,21:25:00,0,0,0,0,0,0,0,58,38,0,28,26,27
07/04/94,21:30:00,0,0,0,0,0,0,0,58,25,0,32,38,26
07/04/94,21:35:00,0,0,0,0,0,0,0,58,25,0,27,26,32
07/04/94,21:40:00,0,0,0,0,0,0,0,58,25,0,34,38,21
07/04/94,21:45:00,0,0,0,0,0,0,0,58,25,0,25,24,31
07/04/94,21:50:00,0,0,0,0,0,0,0,58,25,0,36,34,29
07/04/94,21:55:00,0,0,0,0,0,0,0,57,25,0,23,26,21
07/04/94,22:00:00,0,0,0,0,0,0,0,58,25,0,35,32,34
07/04/94,22:05:00,0,0,0,0,0,0,0,58,25,0,24,30,26
07/04/94,22:10:00,0,0,0,0,0,0,0,58,25,0,34,31,26
07/04/94,22:15:00,0,0,0,0,0,0,0,57,25,0,25,31,33
07/04/94,22:20:00,0,0,0,0,0,0,0,58,25,0,32,30,26
07/04/94,22:25:00,0,0,0,0,0,0,0,58,25,0,28,34,25
07/04/94,22:30:00,0,0,0,0,0,0,0,58,25,0,29,28,33
07/04/94,22:35:00,0,0,0,0,0,0,0,58,25,0,30,37,22
07/04/94,22:40:00,0,0,0,0,0,0,0,57,25,0,28,27,31
07/04/94,22:45:00,0,0,0,0,0,0,0,58,25,0,34,38,28
07/04/94,22:50:00,0,0,0,0,0,0,0,58,25,0,25,24,22
07/04/94,22:55:00,0,0,0,0,0,0,0,58,39,0,35,37,33
07/04/94,23:00:00,0,0,0,0,0,0,0,58,25,0,24,24,27
07/04/94,23:05:00,0,0,0,0,0,0,0,58,25,0,36,35,25
07/04/94,23:10:00,0,0,0,0,0,0,0,58,25,0,23,26,33
07/04/94,23:15:00,0,0,0,0,0,0,0,58,25,0,35,32,23
07/04/94,23:20:00,0,0,0,0,0,0,0,58,25,0,24,30,26
07/04/94,23:25:00,0,0,0,0,0,0,0,57,25,0,32,30,32
07/04/94,23:30:00,0,0,0,0,0,0,0,58,25,0,27,34,21
07/04/94,23:35:00,0,0,0,0,0,0,0,58,25,0,30,28,33
07/04/94,23:40:00,0,0,0,0,0,0,0,58,39,0,31,37,28
07/04/94,23:45:00,0,0,0,0,0,0,0,58,25,0,27,25,23
07/04/94,23:50:00,0,0,0,0,0,0,0,58,25,0,34,38,33
07/04/94,23:55:00,0,0,0,0,0,0,0,57,25,0,25,24,26
07/05/94,00:00:00,0,0,0,0,0,0,0,58,25,0,36,36,27
